Elmas current weather conditions

sailwx.info

Wind from 170 at 13 knots

Air temperature 28.0° C
Dewpoint 23.0° C

Last reported at 2015-Aug-31 16:20 UTC.
Time now 2015-Aug-31 17:47 UTC

Location: N 39°15' E 009°03'.
View on Google Maps.

See reports from other nearby stations

  
Tides and Currents Weather Stations Pressure Air Temp Water Temp Dewpoint Dewpoint Depression Visibility Wind Speed Wind Dir Waves Ship Positions
date/time (UTC)wind fromknots sea level pressurealtimeterstation pressurevisibilityair tempwater tempwave heightnotes
2015-Aug-31 16:20 170 13 28.0
2015-Aug-31 15:50 170 13 29.0
2015-Aug-31 15:20 170 13 29.0
2015-Aug-31 14:50 170 13 29.0
2015-Aug-31 14:20 150 15 30.0
2015-Aug-31 13:50 190 14 30.0
2015-Aug-31 13:20 150 12 32.0
2015-Aug-31 12:50 170 10 32.0
2015-Aug-31 12:20 180 8 32.0
2015-Aug-31 11:50 150 10 31.0
2015-Aug-31 11:20 150 10 32.0
2015-Aug-31 10:50 160 10 32.0
2015-Aug-31 10:20 180 8 31.0
2015-Aug-31 09:50 190 8 30.0
2015-Aug-31 09:20 190 8 29.0
2015-Aug-31 08:50 180 5 30.0
2015-Aug-31 08:20 220 5 27.0
2015-Aug-31 07:50 170 3 27.0
2015-Aug-31 07:20 28.0
2015-Aug-31 06:50 24.0
2015-Aug-31 06:20 310 3 22.0
2015-Aug-31 05:50 320 3 21.0
2015-Aug-31 05:20 320 4 20.0
2015-Aug-31 04:50 320 5 20.0
2015-Aug-31 04:20 310 4 20.0
2015-Aug-31 03:50 010 2 21.0
2015-Aug-31 02:50 22.0
2015-Aug-31 02:20 22.0
2015-Aug-31 01:50 020 5 22.0
2015-Aug-31 01:20 030 4 22.0
2015-Aug-31 00:20 22.0
2015-Aug-30 23:50 030 3 22.0
2015-Aug-30 23:20 050 4 23.0
2015-Aug-30 22:50 180 9 26.0
2015-Aug-30 22:20 190 9 26.0
2015-Aug-30 21:50 190 9 27.0
2015-Aug-30 21:20 160 9 26.0
2015-Aug-30 20:50 170 10 26.0
2015-Aug-30 20:20 190 10 27.0
2015-Aug-30 19:50 190 8 27.0
2015-Aug-30 19:20 160 6 27.0
2015-Aug-30 18:50 140 10 27.0
2015-Aug-30 18:20 150 11 27.0
2015-Aug-30 17:50 150 11 28.0
2015-Aug-30 17:20 150 12 28.0
2015-Aug-30 16:50 140 12 29.0
2015-Aug-30 16:20 140 12 29.0
2015-Aug-30 15:50 140 10 31.0
2015-Aug-30 15:20 140 13 31.0
2015-Aug-30 14:50 140 12 30.0
2015-Aug-30 14:20 140 13 30.0
2015-Aug-30 13:50 140 12 30.0
2015-Aug-30 13:20 140 12 31.0
2015-Aug-30 12:50 150 14 31.0
2015-Aug-30 12:20 150 14 31.0
2015-Aug-30 11:50 160 11 31.0
2015-Aug-30 11:20 160 12 31.0
2015-Aug-30 10:50 160 13 30.0
2015-Aug-30 10:20 160 11 30.0
2015-Aug-30 09:50 170 13 30.0
2015-Aug-30 09:20 170 12 30.0
2015-Aug-30 08:50 170 11 29.0
2015-Aug-30 08:20 170 9 29.0
2015-Aug-30 07:50 150 6 29.0
2015-Aug-30 07:20 150 3 28.0
2015-Aug-30 06:50 27.0
2015-Aug-30 06:20 25.0
2015-Aug-30 05:50 020 3 23.0
2015-Aug-30 05:20 040 3 22.0
2015-Aug-30 03:50 160 9 26.0
2015-Aug-30 03:20 170 9 25.0
2015-Aug-30 02:50 180 11 26.0
2015-Aug-30 02:20 180 11 26.0
2015-Aug-30 01:50 23.0
2015-Aug-30 01:20 040 3 22.0
2015-Aug-30 00:50 050 3 22.0
2015-Aug-30 00:20 050 3 22.0
2015-Aug-29 23:50 040 2 22.0
2015-Aug-29 23:20 24.0
2015-Aug-29 22:50 030 3 24.0
2015-Aug-29 22:20 160 3 25.0
2015-Aug-29 21:50 150 2 26.0
2015-Aug-29 21:20 140 3 26.0
2015-Aug-29 20:50 120 5 26.0
2015-Aug-29 20:20 25.0
2015-Aug-29 19:50 120 3 26.0
2015-Aug-29 19:20 150 6 26.0
2015-Aug-29 18:50 150 6 26.0
2015-Aug-29 18:20 150 8 27.0
2015-Aug-29 17:50 150 10 27.0
2015-Aug-29 17:20 150 13 27.0